| time (UTC) | temp F | wind direction | speed knots | gust knots | rain 1hr in | rain 24hr in | rain mn in | humidity % | barometer mb |
| 20260506023603 | 21 | 101 | 0.0 | 1.7 | 0.00 | 0.00 | 0.00 | 77 | 1011.1 |
| 20260506022916 | 21 | 112 | 0.0 | 1.7 | 0.00 | 0.00 | 0.00 | 77 | 1011.2 |
| 20260506021803 | 20 | 0 | 0.0 | 0.0 | 0.00 | 0.00 | 0.00 | 76 | 1011.2 |
| 20260506021116 | 20 | 0 | 0.0 | 0.0 | 0.00 | 0.00 | 0.00 | 76 | 1011.2 |
| 20260506020003 | 21 | 0 | 0.0 | 0.0 | 0.00 | 0.00 | 0.00 | 76 | 1011.2 |
| 20260506015403 | 21 | 0 | 0.0 | 0.0 | 0.00 | 0.00 | 0.00 | 76 | 1011.3 |
| 20260506014717 | 21 | 0 | 0.0 | 0.0 | 0.00 | 0.00 | 0.00 | 76 | 1011.3 |
| 20260506013603 | 22 | 135 | 0.0 | 0.9 | 0.00 | 0.00 | 0.00 | 76 | 1011.3 |
| 20260506012703 | 22 | 0 | 0.0 | 0.0 | 0.00 | 0.00 | 0.00 | 76 | 1011.4 |
| 20260506011803 | 22 | 0 | 0.0 | 0.0 | 0.00 | 0.00 | 0.00 | 77 | 1011.3 |
| 20260506011116 | 23 | 0 | 0.0 | 0.0 | 0.00 | 0.00 | 0.00 | 77 | 1011.4 |
| 20260506010214 | 23 | 0 | 0.0 | 0.0 | 0.00 | 0.00 | 0.00 | 76 | 1011.4 |
| 20260506005403 | 23 | 0 | 0.0 | 0.0 | 0.00 | 0.00 | 0.00 | 77 | 1011.5 |
| 20260506004718 | 22 | 0 | 0.0 | 0.0 | 0.00 | 0.00 | 0.00 | 77 | 1011.4 |
| 20260506003815 | 22 | 0 | 0.0 | 0.0 | 0.00 | 0.00 | 0.00 | 75 | 1011.5 |
| 20260506002703 | 22 | 0 | 0.0 | 0.0 | 0.00 | 0.00 | 0.00 | 75 | 1011.5 |
| 20260506001805 | 22 | 0 | 0.0 | 0.0 | 0.00 | 0.00 | 0.00 | 75 | 1011.5 |
| 20260506000903 | 22 | 0 | 0.0 | 0.0 | 0.00 | 0.00 | 0.00 | 75 | 1011.4 |
| 20260506000003 | 22 | 0 | 0.0 | 0.0 | 0.00 | 0.00 | 0.00 | 75 | 1011.6 |
| 20260505235403 | 22 | 0 | 0.0 | 0.0 | 0.00 | 0.00 | 0.00 | 75 | 1011.7 |
| 20260505234713 | 22 | 0 | 0.0 | 0.0 | 0.00 | 0.00 | 0.00 | 74 | 1011.5 |
| 20260505233815 | 22 | 0 | 0.0 | 0.0 | 0.00 | 0.00 | 0.00 | 73 | 1011.5 |
| 20260505232913 | 22 | 0 | 0.0 | 0.0 | 0.00 | 0.00 | 0.00 | 73 | 1011.4 |
| 20260505232015 | 22 | 0 | 0.0 | 0.0 | 0.00 | 0.00 | 0.00 | 72 | 1011.3 |
| 20260505231112 | 23 | 0 | 0.0 | 0.0 | 0.00 | 0.00 | 0.00 | 72 | 1011.4 |
| 20260505230215 | 23 | 0 | 0.0 | 0.0 | 0.00 | 0.00 | 0.00 | 71 | 1011.1 |
| 20260505225403 | 23 | 0 | 0.0 | 0.0 | 0.00 | 0.00 | 0.00 | 71 | 1011.0 |
| 20260505224714 | 23 | 0 | 0.0 | 0.0 | 0.00 | 0.00 | 0.00 | 71 | 1011.0 |
| 20260505223603 | 24 | 135 | 0.0 | 0.9 | 0.00 | 0.00 | 0.00 | 70 | 1011.0 |
| 20260505222703 | 24 | 135 | 0.9 | 0.9 | 0.00 | 0.00 | 0.00 | 69 | 1010.8 |
| 20260505222016 | 24 | 0 | 0.0 | 0.0 | 0.00 | 0.00 | 0.00 | 69 | 1010.8 |
| 20260505220903 | 24 | 112 | 0.9 | 0.9 | 0.00 | 0.00 | 0.00 | 67 | 1010.9 |
| 20260505220215 | 24 | 0 | 0.0 | 0.0 | 0.00 | 0.00 | 0.00 | 67 | 1010.8 |
| 20260505215617 | 25 | 0 | 0.0 | 0.0 | 0.00 | 0.00 | 0.00 | 67 | 1010.8 |
| 20260505214503 | 25 | 0 | 0.0 | 0.0 | 0.00 | 0.00 | 0.00 | 66 | 1010.9 |
| 20260505213817 | 26 | 0 | 0.0 | 0.0 | 0.00 | 0.00 | 0.00 | 66 | 1010.9 |
| 20260505212914 | 26 | 0 | 0.0 | 0.0 | 0.00 | 0.00 | 0.00 | 65 | 1010.8 |
| 20260505211803 | 27 | 18 | 0.0 | 0.9 | 0.00 | 0.00 | 0.00 | 65 | 1010.9 |
| 20260505211114 | 28 | 198 | 0.9 | 0.9 | 0.00 | 0.00 | 0.00 | 62 | 1010.8 |
| 20260505210216 | 28 | 328 | 0.0 | 1.7 | 0.00 | 0.00 | 0.00 | 62 | 1010.6 |
| 20260505205403 | 28 | 6 | 1.7 | 2.6 | 0.00 | 0.00 | 0.00 | 62 | 1010.5 |
| 20260505204715 | 29 | 16 | 0.0 | 5.2 | 0.00 | 0.00 | 0.00 | 61 | 1010.5 |
| 20260505203603 | 29 | 60 | 1.7 | 2.6 | 0.00 | 0.00 | 0.00 | 61 | 1010.4 |
| 20260505202915 | 29 | 42 | 0.0 | 4.3 | 0.00 | 0.00 | 0.00 | 61 | 1010.5 |
| 20260505201803 | 29 | 22 | 1.7 | 1.7 | 0.00 | 0.00 | 0.00 | 60 | 1010.5 |
| 20260505201114 | 29 | 0 | 0.0 | 0.0 | 0.00 | 0.00 | 0.00 | 59 | 1010.4 |
| 20260505200004 | 29 | 0 | 0.0 | 0.0 | 0.00 | 0.00 | 0.00 | 58 | 1010.3 |
| 20260505195403 | 30 | 0 | 0.0 | 0.0 | 0.00 | 0.00 | 0.00 | 58 | 1010.2 |
| 20260505194503 | 30 | 353 | 0.0 | 1.7 | 0.00 | 0.00 | 0.00 | 58 | 1010.0 |
| 20260505193813 | 31 | 299 | 0.9 | 2.6 | 0.00 | 0.00 | 0.00 | 59 | 1010.0 |
| 20260505192703 | 31 | 323 | 2.6 | 3.5 | 0.00 | 0.00 | 0.00 | 59 | 1009.9 |
| 20260505191803 | 31 | 327 | 3.5 | 3.5 | 0.00 | 0.00 | 0.00 | 57 | 1009.9 |
| 20260505191115 | 31 | 332 | 0.9 | 0.9 | 0.00 | 0.00 | 0.00 | 56 | 1010.0 |
| 20260505190004 | 31 | 24 | 0.0 | 3.5 | 0.00 | 0.00 | 0.00 | 55 | 1009.9 |
| 20260505185614 | 31 | 25 | 0.0 | 3.5 | 0.00 | 0.00 | 0.00 | 55 | 1009.9 |
| 20260505184716 | 32 | 294 | 0.9 | 3.5 | 0.00 | 0.00 | 0.00 | 55 | 1009.8 |
| 20260505183603 | 32 | 286 | 0.9 | 4.3 | 0.00 | 0.00 | 0.00 | 54 | 1009.6 |
| 20260505182703 | 33 | 289 | 2.6 | 7.0 | 0.00 | 0.00 | 0.00 | 54 | 1009.6 |
| 20260505181803 | 33 | 277 | 2.6 | 4.3 | 0.00 | 0.00 | 0.00 | 54 | 1009.5 |
| 20260505180903 | 33 | 278 | 4.3 | 7.0 | 0.00 | 0.00 | 0.00 | 53 | 1009.5 |
| 20260505180213 | 34 | 281 | 3.5 | 6.1 | 0.00 | 0.00 | 0.00 | 53 | 1009.4 |
| 20260505175615 | 34 | 298 | 2.6 | 10.4 | 0.00 | 0.00 | 0.00 | 52 | 1009.5 |
| 20260505174717 | 34 | 302 | 10.4 | 10.4 | 0.00 | 0.00 | 0.00 | 52 | 1009.5 |
| 20260505173605 | 35 | 289 | 4.3 | 13.0 | 0.00 | 0.00 | 0.00 | 53 | 1009.5 |
| 20260505172703 | 36 | 305 | 6.1 | 12.2 | 0.00 | 0.00 | 0.00 | 51 | 1009.5 |
| 20260505172014 | 36 | 310 | 5.2 | 12.2 | 0.00 | 0.00 | 0.00 | 51 | 1009.4 |
| 20260505170903 | 37 | 282 | 3.5 | 7.8 | 0.00 | 0.00 | 0.00 | 53 | 1009.3 |
| 20260505170214 | 36 | 280 | 4.3 | 13.0 | 0.00 | 0.00 | 0.00 | 56 | 1009.3 |
| 20260505165403 | 36 | 302 | 10.4 | 13.0 | 0.00 | 0.00 | 0.00 | 56 | 1009.3 |
| 20260505164503 | 37 | 359 | 4.3 | 5.2 | 0.00 | 0.00 | 0.00 | 52 | 1009.3 |
| 20260505163604 | 37 | 313 | 5.2 | 7.0 | 0.00 | 0.00 | 0.00 | 50 | 1009.5 |
| 20260505162703 | 37 | 305 | 7.0 | 7.8 | 0.00 | 0.00 | 0.00 | 47 | 1009.4 |
| 20260505162015 | 38 | 292 | 4.3 | 9.6 | 0.00 | 0.00 | 0.00 | 46 | 1009.2 |
| 20260505161117 | 40 | 293 | 9.6 | 9.6 | 0.00 | 0.00 | 0.00 | 45 | 1009.2 |
| 20260505160214 | 39 | 277 | 0.0 | 5.2 | 0.00 | 0.02 | 0.00 | 49 | 1009.0 |
| 20260505152705 | 38 | 287 | 6.1 | 6.1 | 0.00 | 0.02 | 0.00 | 51 | 1009.1 |
| 20260505151804 | 37 | 290 | 4.3 | 7.8 | 0.00 | 0.02 | 0.00 | 48 | 1009.2 |
| 20260505150903 | 37 | 282 | 7.0 | 8.7 | 0.00 | 0.02 | 0.00 | 45 | 1009.2 |
| 20260505140216 | 42 | 297 | 4.3 | 5.2 | 0.00 | 0.02 | 0.00 | 41 | 1009.0 |
| 20260505124503 | 42 | 272 | 3.5 | 7.0 | 0.00 | 0.02 | 0.00 | 38 | 1009.1 |
| 20260505123812 | 43 | 285 | 6.1 | 7.0 | 0.00 | 0.02 | 0.00 | 39 | 1009.0 |
| 20260505122703 | 40 | 299 | 5.2 | 11.3 | 0.00 | 0.02 | 0.00 | 38 | 1009.1 |
| 20260505122017 | 42 | 292 | 1.7 | 11.3 | 0.00 | 0.02 | 0.00 | 36 | 1009.1 |
| 20260505120903 | 42 | 279 | 7.8 | 8.7 | 0.00 | 0.02 | 0.00 | 39 | 1009.1 |
| 20260505120217 | 42 | 281 | 7.0 | 8.7 | 0.00 | 0.02 | 0.00 | 38 | 1009.1 |
| 20260505115404 | 43 | 294 | 7.0 | 8.7 | 0.00 | 0.02 | 0.00 | 37 | 1009.1 |
| 20260505114716 | 44 | 312 | 6.1 | 7.8 | 0.00 | 0.02 | 0.00 | 36 | 1009.1 |
| 20260505113813 | 41 | 282 | 7.8 | 7.8 | 0.00 | 0.02 | 0.00 | 40 | 1009.1 |
| 20260505112703 | 40 | 286 | 14.8 | 14.8 | 0.00 | 0.02 | 0.00 | 41 | 1009.0 |
| 20260505112013 | 40 | 300 | 9.6 | 9.6 | 0.00 | 0.02 | 0.00 | 41 | 1009.0 |
| 20260505111115 | 39 | 279 | 6.1 | 9.6 | 0.00 | 0.02 | 0.00 | 42 | 1009.0 |
| 20260505101803 | 36 | 280 | 12.2 | 12.2 | 0.00 | 0.02 | 0.00 | 48 | 1009.0 |
| 20260505100903 | 35 | 313 | 6.1 | 13.9 | 0.00 | 0.02 | 0.00 | 46 | 1009.0 |
| 20260505100213 | 35 | 287 | 10.4 | 10.4 | 0.00 | 0.02 | 0.00 | 48 | 1009.0 |
| 20260505095615 | 36 | 285 | 6.1 | 14.8 | 0.00 | 0.02 | 0.00 | 48 | 1009.1 |
| 20260505094503 | 35 | 281 | 14.8 | 14.8 | 0.00 | 0.02 | 0.00 | 48 | 1008.9 |
| 20260505093814 | 35 | 289 | 8.7 | 10.4 | 0.00 | 0.02 | 0.00 | 48 | 1008.9 |
| 20260505092917 | 36 | 305 | 6.1 | 13.9 | 0.00 | 0.02 | 0.00 | 47 | 1009.0 |
| 20260505091803 | 36 | 282 | 13.9 | 13.9 | 0.00 | 0.02 | 0.00 | 48 | 1009.0 |
| 20260505090903 | 36 | 270 | 5.2 | 9.6 | 0.00 | 0.02 | 0.00 | 47 | 1008.9 |
| 20260505090219 | 35 | 268 | 6.1 | 9.6 | 0.00 | 0.02 | 0.00 | 49 | 1008.9 |
| 20260505085615 | 35 | 283 | 7.0 | 9.6 | 0.00 | 0.02 | 0.00 | 49 | 1008.8 |
| 20260505084718 | 35 | 284 | 8.7 | 8.7 | 0.00 | 0.02 | 0.00 | 49 | 1008.8 |
| 20260505083815 | 35 | 279 | 6.1 | 11.3 | 0.00 | 0.02 | 0.00 | 50 | 1008.7 |
| 20260505082703 | 34 | 290 | 10.4 | 11.3 | 0.00 | 0.02 | 0.00 | 49 | 1008.7 |
| 20260505082015 | 34 | 278 | 5.2 | 11.3 | 0.00 | 0.02 | 0.00 | 49 | 1008.8 |
| 20260505081117 | 34 | 291 | 11.3 | 11.3 | 0.00 | 0.02 | 0.00 | 50 | 1008.7 |
| 20260505080003 | 32 | 275 | 7.8 | 8.7 | 0.00 | 0.02 | 0.00 | 53 | 1008.5 |
| 20260505075403 | 33 | 272 | 7.8 | 8.7 | 0.00 | 0.02 | 0.00 | 52 | 1008.5 |
| 20260505074713 | 32 | 289 | 8.7 | 14.8 | 0.00 | 0.02 | 0.00 | 53 | 1008.5 |
| 20260505073815 | 33 | 297 | 14.8 | 14.8 | 0.00 | 0.02 | 0.00 | 53 | 1008.5 |
| 20260505072703 | 33 | 278 | 5.2 | 8.7 | 0.00 | 0.02 | 0.00 | 53 | 1008.7 |
| 20260505071803 | 33 | 289 | 7.0 | 10.4 | 0.00 | 0.02 | 0.00 | 53 | 1008.7 |
| 20260505070903 | 33 | 294 | 9.6 | 10.4 | 0.00 | 0.02 | 0.00 | 53 | 1008.5 |
| 20260505070005 | 32 | 282 | 6.1 | 11.3 | 0.00 | 0.02 | 0.00 | 53 | 1008.5 |
| 20260505065403 | 32 | 282 | 7.0 | 12.2 | 0.00 | 0.02 | 0.00 | 54 | 1008.4 |
| 20260505064714 | 32 | 280 | 8.7 | 10.4 | 0.00 | 0.02 | 0.00 | 54 | 1008.3 |
| 20260505063816 | 32 | 299 | 8.7 | 9.6 | 0.00 | 0.02 | 0.00 | 53 | 1008.4 |
| 20260505062703 | 32 | 308 | 1.7 | 5.2 | 0.00 | 0.02 | 0.00 | 56 | 1008.3 |
| 20260505062016 | 32 | 306 | 5.2 | 8.7 | 0.00 | 0.02 | 0.00 | 55 | 1008.2 |
| 20260505061113 | 32 | 292 | 2.6 | 10.4 | 0.00 | 0.02 | 0.00 | 55 | 1008.1 |
| 20260505060215 | 33 | 326 | 5.2 | 7.0 | 0.00 | 0.02 | 0.00 | 53 | 1008.1 |
| 20260505055617 | 33 | 337 | 7.0 | 7.0 | 0.00 | 0.02 | 0.00 | 57 | 1008.0 |
| 20260505054714 | 33 | 58 | 0.0 | 2.6 | 0.00 | 0.02 | 0.00 | 58 | 1008.0 |
| 20260505053603 | 32 | 67 | 0.0 | 0.9 | 0.00 | 0.02 | 0.00 | 61 | 1008.1 |
| 20260505052703 | 31 | 112 | 0.0 | 0.9 | 0.00 | 0.02 | 0.00 | 62 | 1008.1 |
| 20260505052017 | 30 | 37 | 0.0 | 1.7 | 0.00 | 0.02 | 0.00 | 63 | 1008.1 |
| 20260505051114 | 28 | 351 | 0.0 | 1.7 | 0.00 | 0.02 | 0.00 | 64 | 1008.1 |
| 20260505050216 | 27 | 315 | 0.0 | 1.7 | 0.00 | 0.02 | 0.00 | 64 | 1008.0 |
| 20260505040903 | 26 | 46 | 1.7 | 2.6 | 0.00 | 0.02 | 0.00 | 64 | 1007.9 |
| 20260505040004 | 26 | 319 | 0.0 | 5.2 | 0.00 | 0.02 | 0.00 | 63 | 1007.7 |
| 20260505035403 | 26 | 304 | 1.7 | 5.2 | 0.00 | 0.02 | 0.00 | 63 | 1007.5 |
| 20260505034716 | 26 | 347 | 0.0 | 1.7 | 0.00 | 0.02 | 0.00 | 63 | 1007.4 |
| 20260505033605 | 27 | 342 | 2.6 | 6.1 | 0.00 | 0.02 | 0.00 | 63 | 1007.3 |
| 20260505032703 | 27 | 351 | 6.1 | 6.1 | 0.00 | 0.02 | 0.00 | 62 | 1007.3 |
| 20260505031803 | 27 | 333 | 3.5 | 3.5 | 0.00 | 0.02 | 0.00 | 62 | 1007.2 |
| 20260505030903 | 27 | 7 | 1.7 | 5.2 | 0.00 | 0.02 | 0.00 | 62 | 1007.3 |
| 20260505030003 | 27 | 6 | 4.3 | 4.3 | 0.00 | 0.02 | 0.00 | 62 | 1007.3 |
| 20260505025614 | 27 | 353 | 3.5 | 6.1 | 0.00 | 0.02 | 0.00 | 62 | 1007.4 |
| 20260505024716 | 27 | 352 | 2.6 | 4.3 | 0.00 | 0.02 | 0.00 | 63 | 1007.3 |